CW1353 Weather Reports


time (UTC)temp
C
wind
direction
speed
KPH
gust
KPH
rain 1hr
cm
rain 24hr
cm
rain mn
cm
humidity
%
barometer
mb
20260510203031 27 57 3.2 4.8 0.00 0.33 0.03 77 1017.0
20260510202116 27 57 1.6 9.7 0.00 0.33 0.03 76 1017.0
20260510201048 27 207 3.2 6.4 0.00 0.33 0.03 78 1017.0
20260510200042 27 113 3.2 11.3 0.00 0.33 0.03 77 1017.1
20260510195053 28 70 3.2 9.7 0.00 0.33 0.03 76 1017.1
20260510194115 27 261 3.2 6.4 0.00 0.33 0.03 77 1017.2
20260510193108 27 217 3.2 9.7 0.00 0.33 0.03 77 1017.4
20260510192041 27 201 3.2 9.7 0.00 0.33 0.03 76 1017.2
20260510191034 27 159 3.2 9.7 0.00 0.33 0.03 76 1017.2
20260510190058 27 205 3.2 9.7 0.00 0.33 0.03 77 1017.3
20260510185031 28 223 6.4 12.9 0.00 0.33 0.03 74 1017.4
20260510184101 27 123 6.4 14.5 0.00 0.33 0.03 78 1017.6
20260510183100 27 155 3.2 8.0 0.00 0.33 0.03 75 1017.9
20260510182039 27 232 3.2 11.3 0.00 0.33 0.03 77 1017.7
20260510181030 27 173 3.2 11.3 0.00 0.33 0.03 78 1018.0
20260510180039 27 167 4.8 9.7 0.00 0.33 0.03 80 1018.0
20260510175051 26 203 1.6 9.7 0.00 0.33 0.03 81 1018.3
20260510174041 26 102 4.8 11.3 0.00 0.33 0.03 81 1018.4
20260510173031 26 65 1.6 9.7 0.00 0.33 0.03 80 1018.5
20260510172041 26 94 4.8 8.0 0.03 0.33 0.03 82 1018.6
20260510171029 25 5 3.2 8.0 0.03 0.33 0.03 84 1018.6
20260510170049 25 138 3.2 11.3 0.03 0.61 0.03 85 1018.7
20260510165059 25 39 4.8 9.7 0.03 0.61 0.03 83 1019.0
20260510164030 25 360 1.6 11.3 0.03 0.61 0.03 83 1018.9
20260510163109 25 9 1.6 9.7 0.03 0.61 0.03 83 1018.8
20260510162057 25 345 3.2 9.7 0.00 0.58 0.00 85 1018.7
20260510161045 25 322 3.2 8.0 0.00 0.58 0.00 86 1018.7
20260510160038 24 332 1.6 11.3 0.00 1.22 0.00 87 1018.6
20260510155028 24 105 4.8 9.7 0.00 1.22 0.00 88 1018.6
20260510154047 23 29 1.6 8.0 0.00 1.22 0.00 88 1018.8
20260510153036 23 340 3.2 11.3 0.00 1.22 0.00 90 1019.0
20260510152107 23 65 1.6 9.7 0.00 1.22 0.00 91 1018.7
20260510151036 22 55 3.2 9.7 0.00 1.22 0.00 91 1018.6
20260510150054 22 360 1.6 8.0 0.00 1.80 0.00 94 1018.7
20260510145043 22 34 1.6 8.0 0.00 1.80 0.00 96 1018.9
20260510144032 21 34 0.0 6.4 0.00 1.80 0.00 99 1019.0
20260510143037 21 26 1.6 8.0 0.00 1.80 0.00 100 1019.0
20260510142055 20 116 1.6 9.7 0.00 1.80 0.00 100 1018.9
20260510141043 20 45 0.0 6.4 0.00 1.80 0.00 100 1018.9
20260510140055 20 324 1.6 6.4 0.00 2.16 0.00 100 1018.8
20260510135046 19 83 0.0 3.2 0.00 2.16 0.00 100 1018.7
20260510134039 19 83 1.6 6.4 0.00 2.16 0.00 100 1018.7
20260510133030 19 53 0.0 6.4 0.00 2.16 0.00 100 1018.5
20260510132055 19 53 1.6 8.0 0.00 2.16 0.00 100 1018.5
20260510131045 18 33 0.0 3.2 0.00 2.16 0.00 100 1018.4
20260510130057 18 32 1.6 3.2 0.00 2.18 0.00 100 1018.3
20260510125029 18 30 0.0 3.2 0.00 2.18 0.00 100 1018.3
20260510124047 18 30 0.0 1.6 0.00 2.18 0.00 100 1018.3
20260510123038 18 74 1.6 4.8 0.00 2.18 0.00 100 1018.1
20260510122029 18 82 0.0 1.6 0.00 2.18 0.00 100 1018.0
20260510121040 18 82 0.0 3.2 0.00 2.18 0.00 100 1017.7
20260510120030 18 72 1.6 4.8 0.00 2.21 0.00 100 1017.5
20260510115041 18 72 0.0 1.6 0.00 2.21 0.00 100 1017.3
20260510114033 18 72 0.0 6.4 0.00 2.21 0.00 100 1017.2
20260510113055 18 72 0.0 8.0 0.00 2.21 0.00 100 1017.0
20260510112046 18 72 0.0 0.0 0.00 2.21 0.00 100 1016.8
20260510111040 18 72 0.0 0.0 0.00 2.21 0.00 100 1016.9
20260510110047 18 72 0.0 0.0 0.00 2.24 0.00 100 1016.8
20260510105033 18 72 0.0 0.0 0.00 2.24 0.00 100 1016.7
20260510104044 18 72 0.0 3.2 0.00 2.24 0.00 100 1016.4
20260510103033 18 73 0.0 0.0 0.00 2.24 0.00 100 1016.3
20260510102053 18 73 0.0 0.0 0.00 2.24 0.00 100 1016.1
20260510101041 17 73 0.0 0.0 0.00 2.24 0.00 100 1016.1
20260510100034 17 73 0.0 1.6 0.00 2.26 0.00 100 1016.1
20260510095029 17 73 0.0 0.0 0.00 2.26 0.00 100 1015.9
20260510094042 17 73 0.0 3.2 0.00 2.26 0.00 100 1016.0
20260510093104 18 73 1.6 6.4 0.00 2.26 0.00 100 1015.9
20260510092032 18 74 0.0 0.0 0.00 2.26 0.00 100 1015.7
20260510091112 18 74 0.0 1.6 0.00 2.26 0.00 100 1015.4
20260510090043 18 74 0.0 0.0 0.00 2.31 0.00 100 1015.3
20260510085032 18 74 0.0 3.2 0.00 2.31 0.00 100 1015.1
20260510084043 18 74 0.0 1.6 0.00 2.31 0.00 100 1015.1
20260510083054 18 74 0.0 6.4 0.00 2.31 0.00 100 1015.0
20260510082052 18 76 0.0 1.6 0.00 2.31 0.00 100 1015.1
20260510081044 18 76 0.0 3.2 0.00 2.31 0.00 100 1014.9
20260510080058 18 78 0.0 0.0 0.00 2.41 0.00 100 1014.9
20260510075026 18 78 0.0 0.0 0.00 2.41 0.00 100 1014.4
20260510074047 18 78 0.0 6.4 0.00 2.41 0.00 100 1014.3
20260510073056 18 77 0.0 0.0 0.00 2.41 0.00 100 1014.7
20260510072030 18 77 0.0 0.0 0.00 2.41 0.00 100 1014.6
20260510071041 18 77 0.0 1.6 0.00 2.41 0.00 100 1014.9
20260510065036 18 77 0.0 0.0 0.00 2.41 0.00 100 1014.6
20260510064028 18 77 0.0 1.6 0.00 2.41 0.00 100 1014.6
20260510063034 18 77 0.0 0.0 0.00 2.41 0.00 100 1014.6
20260510062026 18 77 0.0 0.0 0.00 2.41 0.00 100 1014.5
20260510061040 18 77 0.0 0.0 0.00 2.41 0.00 100 1014.3
20260510060031 18 77 0.0 1.6 0.00 2.44 0.00 100 1014.5
20260510055052 18 77 0.0 0.0 0.00 2.44 0.00 100 1014.6
20260510054045 18 77 0.0 1.6 0.00 2.44 0.00 100 1014.7
20260510053035 19 77 0.0 3.2 0.00 2.44 0.00 100 1014.7
20260510052026 19 76 0.0 6.4 0.00 2.44 0.00 100 1014.8
20260510051036 19 76 3.2 6.4 0.00 2.44 0.00 100 1015.0
20260510050114 19 73 1.6 6.4 0.00 2.44 2.44 100 1015.3
20260510045040 19 226 0.0 1.6 0.00 2.44 2.44 100 1015.3
20260510044033 19 226 0.0 1.6 0.00 2.44 2.44 100 1015.4
20260510043045 19 226 0.0 0.0 0.00 2.44 2.44 100 1015.5
20260510042036 19 226 0.0 3.2 0.00 2.44 2.44 100 1015.7
20260510041029 19 225 0.0 6.4 0.00 2.44 2.44 100 1015.9
20260510040051 19 225 0.0 3.2 0.00 2.44 2.44 100 1016.2
20260510035103 19 225 0.0 1.6 0.00 2.44 2.44 100 1016.4
20260510034032 19 224 1.6 6.4 0.00 2.44 2.44 100 1015.4
20260510033044 19 101 1.6 6.4 0.00 2.44 2.44 100 1015.3
20260510032036 19 101 1.6 3.2 0.00 2.44 2.44 100 1015.6
20260510031027 19 101 0.0 0.0 0.00 2.44 2.44 100 1015.7
20260510030043 19 101 0.0 0.0 0.00 2.46 2.44 100 1015.9
20260510025034 19 101 0.0 0.0 0.00 2.46 2.44 100 1015.7
20260510024044 19 101 0.0 1.6 0.00 2.46 2.44 100 1015.6
20260510023059 19 101 0.0 3.2 0.00 2.46 2.44 100 1015.3
20260510022029 19 101 1.6 4.8 0.00 2.46 2.44 100 1014.7
20260510021047 20 253 0.0 0.0 0.00 2.46 2.44 100 1015.0
20260510020100 20 254 0.0 1.6 0.00 2.57 2.44 100 1014.9
20260510015026 20 254 0.0 0.0 0.00 2.57 2.44 100 1015.2
20260510014036 20 254 0.0 0.0 0.00 2.57 2.44 100 1015.6
20260510013100 20 254 0.0 0.0 0.03 2.57 2.44 100 1015.1
20260510012031 20 254 0.0 1.6 0.03 2.57 2.44 100 1014.8
20260510011028 20 253 0.0 3.2 0.03 2.57 2.44 100 1014.7
20260510010050 20 253 1.6 3.2 0.03 2.57 2.44 100 1014.8
20260510005045 20 254 0.0 3.2 0.03 2.57 2.44 100 1014.9
20260510004059 20 254 0.0 0.0 0.03 2.57 2.44 100 1015.0
20260510003032 20 254 0.0 1.6 0.00 2.54 2.41 100 1015.1
20260510002053 20 254 1.6 8.0 0.00 2.54 2.41 100 1015.4
20260510001041 20 230 3.2 4.8 0.03 2.54 2.41 100 1015.0
20260510000033 20 74 0.0 3.2 0.05 2.54 2.41 100 1014.1
20260509235027 20 74 0.0 6.4 0.08 2.54 2.41 100 1013.6
20260509234037 20 87 0.0 1.6 0.10 2.54 2.41 100 1013.3
20260509233030 20 144 0.0 0.0 0.13 2.54 2.41 100 1013.8
20260509232049 20 254 0.0 0.0 0.15 2.54 2.41 99 1014.3
20260509231041 20 254 0.0 0.0 0.13 2.51 2.39 100 1014.1
20260509230033 20 253 0.0 3.2 0.13 2.62 2.36 100 1013.6
20260509225025 20 49 0.0 6.4 0.10 2.59 2.34 99 1013.1
20260509224038 20 122 1.6 9.7 0.08 2.57 2.31 99 1013.3
20260509223029 20 140 1.6 8.0 0.08 2.54 2.29 99 1013.3
20260509222039 20 244 0.0 0.0 0.05 2.51 2.26 99 1013.7
20260509221042 20 244 0.0 0.0 0.08 2.51 2.26 99 1013.9
20260509220111 20 137 0.0 0.0 0.05 2.87 2.24 99 1013.5
20260509215034 20 137 0.0 0.0 0.08 2.87 2.24 99 1013.9
20260509214044 20 138 0.0 6.4 0.10 2.87 2.24 99 1013.9
20260509213040 20 211 0.0 3.2 0.08 2.84 2.21 99 1014.0
20260509212029 20 212 0.0 3.2 0.08 2.84 2.21 99 1014.2
20260509211051 20 169 0.0 6.4 0.05 2.82 2.18 99 1013.9
20260509210043 20 292 0.0 6.4 0.05 3.78 2.18 99 1013.8
20260509205033 20 286 1.6 4.8 0.03 3.76 2.16 99 1013.2
20260509204026 20 166 1.6 8.0 0.00 3.73 2.13 99 1013.4